PY1LEO-13 Weather Reports


Display with metric or nautical units.
time (UTC)temp
F
wind
direction
speed
MPH
gust
MPH
rain 1hr
in
rain 24hr
in
rain mn
in
humidity
%
barometer
mb
20260510033552 85 0.0 0.0 0.00 0.00 0.00 57 1014.8
20260510033052 85 0.0 0.0 0.00 0.00 0.00 57 1014.7
20260510032553 86 0.0 0.0 0.00 0.00 0.00 56 1014.6
20260510032052 86 0.0 0.0 0.00 0.00 0.00 56 1014.6
20260510031552 86 0.0 0.0 0.00 0.00 0.00 55 1014.7
20260510031052 86 0.0 0.0 0.00 0.00 0.00 54 1014.8
20260510030552 86 0.0 0.0 0.00 0.00 0.00 50 1014.7
20260510030052 87 0.0 0.0 0.00 0.00 0.00 48 1014.8
20260510025552 87 0.0 0.0 0.00 0.00 0.00 48 1014.8
20260510025054 87 0.0 0.0 0.00 0.00 0.00 48 1014.8
20260510024553 87 0.0 0.0 0.00 0.00 0.00 49 1014.8
20260510023553 87 0.0 0.0 0.00 0.00 0.00 49 1014.9
20260510023052 87 0.0 0.0 0.00 0.00 0.00 49 1014.9
20260510022251 87 0.0 0.0 0.00 0.00 0.00 50 1014.9
20260510021755 87 0.0 0.0 0.00 0.00 0.00 50 1014.9
20260510021251 87 0.0 0.0 0.00 0.00 0.00 50 1014.9
20260510020251 87 0.0 0.0 0.00 0.00 0.00 51 1014.9
20260510014751 87 0.0 0.0 0.00 0.00 0.00 53 1014.9
20260510014253 87 0.0 0.0 0.00 0.00 0.00 53 1015.0
20260510012751 87 0.0 0.0 0.00 0.00 0.00 54 1015.1
20260510012251 87 0.0 0.0 0.00 0.00 0.00 53 1015.1
20260510011751 87 0.0 0.0 0.00 0.00 0.00 53 1015.1
20260510011253 87 0.0 0.0 0.00 0.00 0.00 54 1015.1
20260510010751 87 0.0 0.0 0.00 0.00 0.00 54 1015.0
20260510010251 87 0.0 0.0 0.00 0.00 0.00 54 1014.9
20260510005751 87 0.0 0.0 0.00 0.00 0.00 54 1014.9
20260510005252 87 0.0 0.0 0.00 0.00 0.00 54 1015.1
20260510004751 87 0.0 0.0 0.00 0.00 0.00 54 1015.1
20260510004251 87 0.0 0.0 0.00 0.00 0.00 54 1015.2
20260510003751 87 0.0 0.0 0.00 0.00 0.00 54 1015.1
20260510003251 87 0.0 0.0 0.00 0.00 0.00 54 1015.0
20260510002754 87 0.0 0.0 0.00 0.00 0.00 55 1015.0
20260510001751 87 0.0 0.0 0.00 0.00 0.00 53 1015.0
20260510001251 87 0.0 0.0 0.00 0.00 0.00 53 1015.0
20260510000751 87 0.0 0.0 0.00 0.00 0.00 53 1014.9
20260510000251 87 0.0 0.0 0.00 0.00 0.00 53 1014.9
20260509235751 87 0.0 0.0 0.00 0.00 0.00 53 1014.8
20260509233752 87 0.0 0.0 0.00 0.00 0.00 53 1014.7
20260509233251 87 0.0 0.0 0.00 0.00 0.00 53 1014.6
20260509232751 87 0.0 0.0 0.00 0.00 0.00 52 1014.5
20260509230751 88 0.0 0.0 0.00 0.00 0.00 50 1014.5
20260509230251 88 0.0 0.0 0.00 0.00 0.00 51 1014.5
20260509225751 88 0.0 0.0 0.00 0.00 0.00 51 1014.3
20260509225251 88 0.0 0.0 0.00 0.00 0.00 50 1014.3
20260509224751 88 0.0 0.0 0.00 0.00 0.00 50 1014.2
20260509224252 88 0.0 0.0 0.00 0.00 0.00 50 1014.1
20260509223751 88 0.0 0.0 0.00 0.00 0.00 50 1014.0
20260509222754 88 0.0 0.0 0.00 0.00 0.00 49 1013.9
20260509221751 88 0.0 0.0 0.00 0.00 0.00 49 1013.7
20260509221251 89 0.0 0.0 0.00 0.00 0.00 49 1013.6
20260509220751 88 0.0 0.0 0.00 0.00 0.00 49 1013.5
20260509220251 88 0.0 0.0 0.00 0.00 0.00 49 1013.4
20260509215751 88 0.0 0.0 0.00 0.00 0.00 48 1013.3
20260509215251 88 0.0 0.0 0.00 0.00 0.00 47 1013.3
20260509214751 88 0.0 0.0 0.00 0.00 0.00 49 1013.2
20260509214251 88 0.0 0.0 0.00 0.00 0.00 50 1013.2
20260509213751 88 0.0 0.0 0.00 0.00 0.00 50 1013.1
20260509213251 88 0.0 0.0 0.00 0.00 0.00 50 1013.1
20260509212751 88 0.0 0.0 0.00 0.00 0.00 50 1013.1
20260509212251 88 0.0 0.0 0.00 0.00 0.00 50 1013.1
20260509211751 88 0.0 0.0 0.00 0.00 0.00 50 1013.0
20260509211251 88 0.0 0.0 0.00 0.00 0.00 50 1013.0
20260509210751 88 0.0 0.0 0.00 0.00 0.00 50 1012.9
20260509210251 88 0.0 0.0 0.00 0.00 0.00 50 1012.9
20260509205751 88 0.0 0.0 0.00 0.00 0.00 50 1012.9
20260509205251 88 0.0 0.0 0.00 0.00 0.00 49 1012.9
20260509204751 88 0.0 0.0 0.00 0.00 0.00 49 1012.9
20260509204251 88 0.0 0.0 0.00 0.00 0.00 48 1012.9
20260509203751 88 0.0 0.0 0.00 0.00 0.00 47 1012.9
20260509203251 88 0.0 0.0 0.00 0.00 0.00 46 1012.9
20260509202751 86 0.0 0.0 0.00 0.00 0.00 50 1013.0
20260509202251 88 0.0 0.0 0.00 0.00 0.00 44 1012.9
20260509201751 88 0.0 0.0 0.00 0.00 0.00 43 1012.9
20260509201251 88 0.0 0.0 0.00 0.00 0.00 42 1012.8
20260509200254 89 0.0 0.0 0.00 0.00 0.00 42 1012.8
20260509195752 89 0.0 0.0 0.00 0.00 0.00 44 1012.8
20260509194751 89 0.0 0.0 0.00 0.00 0.00 42 1012.8
20260509194251 89 0.0 0.0 0.00 0.00 0.00 41 1012.8
20260509193751 89 0.0 0.0 0.00 0.00 0.00 42 1012.7
20260509193251 90 0.0 0.0 0.00 0.00 0.00 41 1012.7
20260509192751 91 0.0 0.0 0.00 0.00 0.00 40 1012.7
20260509192251 91 0.0 0.0 0.00 0.00 0.00 40 1012.7
20260509191751 91 0.0 0.0 0.00 0.00 0.00 40 1012.7
20260509191251 90 0.0 0.0 0.00 0.00 0.00 40 1012.7
20260509190751 90 0.0 0.0 0.00 0.00 0.00 42 1012.7
20260509190251 90 0.0 0.0 0.00 0.00 0.00 40 1012.7
20260509185751 90 0.0 0.0 0.00 0.00 0.00 40 1012.7
20260509185251 89 0.0 0.0 0.00 0.00 0.00 41 1012.6
20260509184751 89 0.0 0.0 0.00 0.00 0.00 41 1012.6
20260509184251 88 0.0 0.0 0.00 0.00 0.00 42 1012.6
20260509183751 89 0.0 0.0 0.00 0.00 0.00 43 1012.5
20260509183252 90 0.0 0.0 0.00 0.00 0.00 42 1012.5
20260509182751 90 0.0 0.0 0.00 0.00 0.00 42 1012.6
20260509181751 91 0.0 0.0 0.00 0.00 0.00 40 1012.5
20260509181251 91 0.0 0.0 0.00 0.00 0.00 40 1012.5
20260509180751 94 0.0 0.0 0.00 0.00 0.00 37 1012.5
20260509180251 93 0.0 0.0 0.00 0.00 0.00 37 1012.5
20260509175751 91 0.0 0.0 0.00 0.00 0.00 38 1012.5
20260509174751 92 0.0 0.0 0.00 0.00 0.00 38 1012.4
20260509174251 94 0.0 0.0 0.00 0.00 0.00 37 1012.4
20260509173751 93 0.0 0.0 0.00 0.00 0.00 37 1012.4
20260509173251 92 0.0 0.0 0.00 0.00 0.00 37 1012.3
20260509172251 94 0.0 0.0 0.00 0.00 0.00 35 1012.2
20260509171751 95 0.0 0.0 0.00 0.00 0.00 33 1012.1
20260509171250 92 0.0 0.0 0.00 0.00 0.00 38 1012.1
20260509170755 92 0.0 0.0 0.00 0.00 0.00 35 1012.1
20260509170253 92 0.0 0.0 0.00 0.00 0.00 36 1012.2
20260509165751 92 0.0 0.0 0.00 0.00 0.00 34 1012.2
20260509165250 93 0.0 0.0 0.00 0.00 0.00 34 1012.2
20260509164751 93 0.0 0.0 0.00 0.00 0.00 34 1012.3
20260509164251 93 0.0 0.0 0.00 0.00 0.00 34 1012.3
20260509163750 93 0.0 0.0 0.00 0.00 0.00 36 1012.2
20260509163252 94 0.0 0.0 0.00 0.00 0.00 33 1012.3
20260509161753 94 0.0 0.0 0.00 0.00 0.00 35 1012.5
20260509161251 93 0.0 0.0 0.00 0.00 0.00 34 1012.6
20260509160752 93 0.0 0.0 0.00 0.00 0.00 35 1012.6
20260509160250 92 0.0 0.0 0.00 0.00 0.00 35 1012.6
20260509155751 92 0.0 0.0 0.00 0.00 0.00 36 1012.6
20260509155251 92 0.0 0.0 0.00 0.00 0.00 35 1012.7
20260509154751 92 0.0 0.0 0.00 0.00 0.00 36 1012.6
20260509154250 91 0.0 0.0 0.00 0.00 0.00 39 1012.7
20260509153750 91 0.0 0.0 0.00 0.00 0.00 37 1012.8
20260509153251 90 0.0 0.0 0.00 0.00 0.00 39 1012.9
20260509152750 91 0.0 0.0 0.00 0.00 0.00 39 1013.0
20260509152251 92 0.0 0.0 0.00 0.00 0.00 35 1013.1
20260509151751 91 0.0 0.0 0.00 0.00 0.00 36 1013.1
20260509151250 92 0.0 0.0 0.00 0.00 0.00 37 1013.2
20260509150751 93 0.0 0.0 0.00 0.00 0.00 36 1013.2
20260509150251 94 0.0 0.0 0.00 0.00 0.00 33 1013.2
20260509145750 94 0.0 0.0 0.00 0.00 0.00 36 1013.3
20260509145250 92 0.0 0.0 0.00 0.00 0.00 37 1013.3
20260509144751 92 0.0 0.0 0.00 0.00 0.00 37 1013.4
20260509144250 92 0.0 0.0 0.00 0.00 0.00 37 1013.6
20260509143750 91 0.0 0.0 0.00 0.00 0.00 38 1013.7
20260509143250 92 0.0 0.0 0.00 0.00 0.00 38 1013.8
20260509142750 92 0.0 0.0 0.00 0.00 0.00 39 1013.8
20260509141751 92 0.0 0.0 0.00 0.00 0.00 37 1013.9
20260509140751 91 0.0 0.0 0.00 0.00 0.00 38 1014.0
20260509140250 92 0.0 0.0 0.00 0.00 0.00 37 1014.0
20260509135750 91 0.0 0.0 0.00 0.00 0.00 39 1014.1
20260509135253 92 0.0 0.0 0.00 0.00 0.00 39 1014.2
20260509134750 90 0.0 0.0 0.00 0.00 0.00 41 1014.2
20260509134251 90 0.0 0.0 0.00 0.00 0.00 42 1014.3
20260509133750 90 0.0 0.0 0.00 0.00 0.00 39 1014.4
20260509133251 90 0.0 0.0 0.00 0.00 0.00 39 1014.5
20260509132250 90 0.0 0.0 0.00 0.00 0.00 41 1014.6
20260509131750 89 0.0 0.0 0.00 0.00 0.00 40 1014.6
20260509130250 88 0.0 0.0 0.00 0.00 0.00 41 1014.9
20260509125752 88 0.0 0.0 0.00 0.00 0.00 42 1015.0
20260509125250 87 0.0 0.0 0.00 0.00 0.00 42 1014.9
20260509124250 87 0.0 0.0 0.00 0.00 0.00 43 1015.0
20260509120750 87 0.0 0.0 0.00 0.00 0.00 41 1014.3
20260509120251 87 0.0 0.0 0.00 0.00 0.00 42 1014.2
20260509115752 87 0.0 0.0 0.00 0.00 0.00 41 1014.1
20260509115250 87 0.0 0.0 0.00 0.00 0.00 42 1014.1
20260509114752 87 0.0 0.0 0.00 0.00 0.00 42 1014.0
20260509113753 86 0.0 0.0 0.00 0.00 0.00 43 1013.9
20260509113252 87 0.0 0.0 0.00 0.00 0.00 42 1013.9
20260509112750 86 0.0 0.0 0.00 0.00 0.00 43 1013.9
20260509112251 86 0.0 0.0 0.00 0.00 0.00 42 1013.9
20260509111252 86 0.0 0.0 0.00 0.00 0.00 42 1013.8
20260509105750 85 0.0 0.0 0.00 0.00 0.00 42 1013.6
20260509103252 85 0.0 0.0 0.00 0.00 0.00 42 1013.5
20260509102251 86 0.0 0.0 0.00 0.00 0.00 41 1013.5
20260509101253 86 0.0 0.0 0.00 0.00 0.00 41 1013.4
20260509094751 85 0.0 0.0 0.00 0.00 0.00 40 1013.1
20260509085250 86 0.0 0.0 0.00 0.00 0.00 39 1012.7
20260509084750 86 0.0 0.0 0.00 0.00 0.00 40 1012.6
20260509084250 85 0.0 0.0 0.00 0.00 0.00 40 1012.6
20260509083750 86 0.0 0.0 0.00 0.00 0.00 39 1012.6
20260509083250 86 0.0 0.0 0.00 0.00 0.00 39 1012.5
20260509082751 86 0.0 0.0 0.00 0.00 0.00 39 1012.6
20260509082250 85 0.0 0.0 0.00 0.00 0.00 40 1012.4
20260509081751 86 0.0 0.0 0.00 0.00 0.00 39 1012.4
20260509081250 86 0.0 0.0 0.00 0.00 0.00 39 1012.3
20260509080750 86 0.0 0.0 0.00 0.00 0.00 39 1012.2
20260509080251 86 0.0 0.0 0.00 0.00 0.00 40 1012.1
20260509075750 86 0.0 0.0 0.00 0.00 0.00 40 1012.0
20260509075250 85 0.0 0.0 0.00 0.00 0.00 40 1012.0
20260509074752 86 0.0 0.0 0.00 0.00 0.00 40 1012.1
20260509074250 86 0.0 0.0 0.00 0.00 0.00 40 1012.1
20260509073750 86 0.0 0.0 0.00 0.00 0.00 40 1012.1
20260509073250 86 0.0 0.0 0.00 0.00 0.00 40 1012.3
20260509072750 86 0.0 0.0 0.00 0.00 0.00 40 1012.2
20260509072250 86 0.0 0.0 0.00 0.00 0.00 39 1012.1
20260509071750 86 0.0 0.0 0.00 0.00 0.00 39 1012.2
20260509071250 86 0.0 0.0 0.00 0.00 0.00 40 1012.1
20260509070750 85 0.0 0.0 0.00 0.00 0.00 41 1012.1
20260509070250 86 0.0 0.0 0.00 0.00 0.00 40 1012.2
20260509065750 86 0.0 0.0 0.00 0.00 0.00 39 1012.1
20260509065250 86 0.0 0.0 0.00 0.00 0.00 40 1012.2
20260509064751 86 0.0 0.0 0.00 0.00 0.00 40 1012.1
20260509064250 85 0.0 0.0 0.00 0.00 0.00 41 1012.2
20260509063750 86 0.0 0.0 0.00 0.00 0.00 41 1012.1
20260509063250 85 0.0 0.0 0.00 0.00 0.00 41 1012.2
20260509062750 86 0.0 0.0 0.00 0.00 0.00 41 1012.3
20260509062250 86 0.0 0.0 0.00 0.00 0.00 41 1012.4
20260509061750 86 0.0 0.0 0.00 0.00 0.00 41 1012.4
20260509061250 85 0.0 0.0 0.00 0.00 0.00 41 1012.4
20260509060750 85 0.0 0.0 0.00 0.00 0.00 41 1012.5
20260509055750 86 0.0 0.0 0.00 0.00 0.00 41 1012.3
20260509055250 86 0.0 0.0 0.00 0.00 0.00 42 1012.4
20260509054751 85 0.0 0.0 0.00 0.00 0.00 42 1012.3
20260509053750 85 0.0 0.0 0.00 0.00 0.00 42 1012.2
20260509053250 85 0.0 0.0 0.00 0.00 0.00 42 1012.2
20260509052750 85 0.0 0.0 0.00 0.00 0.00 42 1012.3
20260509052250 85 0.0 0.0 0.00 0.00 0.00 42 1012.3
20260509051750 85 0.0 0.0 0.00 0.00 0.00 42 1012.4
20260509051250 85 0.0 0.0 0.00 0.00 0.00 43 1012.5
20260509050751 85 0.0 0.0 0.00 0.00 0.00 42 1012.5
20260509050250 85 0.0 0.0 0.00 0.00 0.00 43 1012.5
20260509045750 85 0.0 0.0 0.00 0.00 0.00 43 1012.4
20260509045250 85 0.0 0.0 0.00 0.00 0.00 43 1012.2
20260509044250 85 0.0 0.0 0.00 0.00 0.00 43 1012.2
20260509043750 85 0.0 0.0 0.00 0.00 0.00 42 1012.2
20260509043252 85 0.0 0.0 0.00 0.00 0.00 42 1012.2
20260509042250 86 0.0 0.0 0.00 0.00 0.00 42 1012.2
20260509041253 86 0.0 0.0 0.00 0.00 0.00 42 1012.3
20260509035250 85 0.0 0.0 0.00 0.00 0.00 42 1012.2
20260509034250 86 0.0 0.0 0.00 0.00 0.00 42 1012.1
20260509033750 86 0.0 0.0 0.00 0.00 0.00 42 1012.1